GW5740 Weather Reports


time (UTC)temp
C
wind
direction
speed
KPH
gust
KPH
rain 1hr
cm
rain 24hr
cm
rain mn
cm
humidity
%
barometer
mb
20260504130810 12 185 8.0 12.9 0.00 0.00 0.00 46 1008.8
20260504130310 12 205 9.7 12.9 0.00 0.00 0.00 48 1008.8
20260504120308 10 217 6.4 8.0 0.00 0.00 0.00 52 1008.9
20260504110309 8 188 6.4 8.0 0.00 0.00 0.00 54 1009.1
20260504100308 8 199 6.4 8.0 0.00 0.00 0.00 56 1008.9
20260504081808 8 244 3.2 6.4 0.00 0.00 0.00 61 1009.3
20260504081310 7 237 4.8 6.4 0.00 0.00 0.00 62 1009.3
20260504080811 7 191 3.2 4.8 0.00 0.00 0.00 64 1009.3
20260504080309 7 263 0.0 1.6 0.00 0.00 0.00 64 1009.4
20260504070308 7 217 3.2 4.8 0.00 0.00 0.00 60 1009.6
20260504050309 7 0 0.0 0.0 0.00 0.00 0.00 63 1009.9
20260504045808 7 0 0.0 0.0 0.00 0.00 0.00 62 1009.9
20260504045308 7 235 0.0 1.6 0.00 0.00 0.00 63 1010.0
20260504044808 7 0 0.0 0.0 0.00 0.00 0.00 62 1010.0
20260504044308 7 313 0.0 0.0 0.00 0.00 0.00 61 1010.1
20260504043808 7 17 3.2 3.2 0.00 0.00 0.00 60 1010.1
20260504043308 7 350 3.2 4.8 0.00 0.00 0.00 59 1010.1
20260504042810 7 0 0.0 0.0 0.00 0.00 0.00 58 1010.2
20260504042308 7 289 0.0 1.6 0.00 0.00 0.00 59 1010.2
20260504041809 7 294 1.6 3.2 0.00 0.00 0.00 58 1010.2
20260504041308 7 358 1.6 3.2 0.00 0.00 0.00 56 1010.2
20260504040809 7 0 0.0 0.0 0.00 0.00 0.00 56 1010.1
20260504040309 6 17 1.6 3.2 0.00 0.00 0.00 54 1010.0
20260504035808 6 333 0.0 0.0 0.00 0.00 0.00 54 1010.0
20260504035310 6 6 1.6 3.2 0.00 0.00 0.00 53 1010.0
20260504034815 6 0 0.0 0.0 0.00 0.00 0.00 53 1010.0
20260504034308 6 350 1.6 3.2 0.00 0.00 0.00 54 1010.0
20260504033808 6 0 0.0 0.0 0.00 0.00 0.00 53 1010.0
20260504033310 6 344 0.0 0.0 0.00 0.00 0.00 51 1009.9
20260504032808 6 0 0.0 0.0 0.00 0.00 0.00 55 1009.9
20260504032309 6 13 0.0 3.2 0.00 0.00 0.00 56 1009.9
20260504031808 6 6 3.2 4.8 0.00 0.00 0.00 57 1009.9
20260504031308 6 351 0.0 1.6 0.00 0.00 0.00 55 1009.9
20260504030809 6 356 1.6 3.2 0.00 0.00 0.00 56 1009.8
20260504030309 6 0 0.0 0.0 0.00 0.00 0.00 53 1009.8
20260504025809 5 0 0.0 1.6 0.00 0.00 0.00 53 1009.7
20260504025309 5 353 1.6 3.2 0.00 0.00 0.00 54 1009.7
20260504024808 5 11 3.2 4.8 0.00 0.00 0.00 57 1009.7
20260504024309 5 0 0.0 0.0 0.00 0.00 0.00 60 1009.8
20260504023808 5 11 0.0 0.0 0.00 0.00 0.00 54 1009.8
20260504023309 5 9 0.0 1.6 0.00 0.00 0.00 54 1009.8
20260504022809 5 0 0.0 0.0 0.00 0.00 0.00 56 1009.8
20260504022308 5 0 0.0 0.0 0.00 0.00 0.00 50 1009.8
20260504021808 5 4 1.6 3.2 0.00 0.00 0.00 55 1009.7
20260504021308 5 30 3.2 3.2 0.00 0.00 0.00 53 1009.8
20260504020808 5 16 1.6 3.2 0.00 0.00 0.00 58 1009.9
20260504020309 5 13 0.0 1.6 0.00 0.00 0.00 59 1009.9
20260504015811 5 37 1.6 3.2 0.00 0.00 0.00 56 1009.9
20260504015308 5 7 1.6 3.2 0.00 0.00 0.00 53 1009.9
20260504014808 5 16 3.2 3.2 0.00 0.00 0.00 52 1009.8
20260504014308 5 28 0.0 1.6 0.00 0.00 0.00 53 1009.8
20260504013809 5 22 0.0 1.6 0.00 0.00 0.00 52 1009.8
20260504013308 5 25 1.6 3.2 0.00 0.00 0.00 52 1009.7
20260504012809 5 33 0.0 1.6 0.00 0.00 0.00 52 1009.6
20260504012309 5 13 3.2 3.2 0.00 0.00 0.00 54 1009.6
20260504011808 5 5 3.2 4.8 0.00 0.00 0.00 54 1009.6
20260504011309 5 46 0.0 1.6 0.00 0.00 0.00 54 1009.5
20260504010809 5 30 0.0 3.2 0.00 0.00 0.00 52 1009.4
20260504010311 6 31 3.2 3.2 0.00 0.00 0.00 53 1009.3
20260504005808 6 21 1.6 3.2 0.00 0.00 0.00 51 1009.2
20260504005308 6 68 0.0 0.0 0.00 0.00 0.00 48 1009.2
20260504004808 6 10 3.2 3.2 0.00 0.00 0.00 50 1009.0
20260504004308 6 23 1.6 3.2 0.00 0.00 0.00 49 1009.0
20260504003809 6 4 1.6 3.2 0.00 0.00 0.00 50 1008.9
20260504003308 6 27 0.0 1.6 0.00 0.00 0.00 51 1008.9
20260504002809 6 349 0.0 3.2 0.00 0.00 0.00 47 1008.8
20260504002308 6 359 1.6 3.2 0.00 0.00 0.00 47 1008.7
20260504001808 6 0 0.0 0.0 0.00 0.00 0.00 47 1008.6
20260504001308 7 321 1.6 3.2 0.00 0.00 0.00 49 1008.5
20260504000808 7 359 1.6 3.2 0.00 0.00 0.00 48 1008.4
20260504000309 7 10 0.0 1.6 0.00 0.00 0.00 45 1008.3
20260503235808 8 0 0.0 0.0 0.00 0.00 0.00 44 1008.1
20260503235308 8 0 0.0 0.0 0.00 0.00 0.00 42 1008.1
20260503234808 8 317 0.0 1.6 0.00 0.00 0.00 39 1007.9
20260503234308 8 320 0.0 1.6 0.00 0.00 0.00 38 1007.9
20260503233808 8 325 1.6 3.2 0.00 0.00 0.00 39 1007.8
20260503233308 8 51 0.0 1.6 0.00 0.00 0.00 39 1007.7
20260503232808 8 331 0.0 1.6 0.00 0.00 0.00 38 1007.7
20260503232315 8 351 0.0 3.2 0.00 0.00 0.00 38 1007.6
20260503231808 9 328 0.0 3.2 0.00 0.00 0.00 38 1007.6
20260503231308 9 346 1.6 3.2 0.00 0.00 0.00 38 1007.6
20260503230808 9 327 1.6 3.2 0.00 0.00 0.00 37 1007.5
20260503230308 9 354 0.0 1.6 0.00 0.00 0.00 38 1007.5
20260503225808 9 4 0.0 3.2 0.00 0.00 0.00 38 1007.5
20260503225310 9 359 0.0 3.2 0.00 0.00 0.00 38 1007.5
20260503224808 9 332 1.6 3.2 0.00 0.00 0.00 39 1007.5
20260503224308 10 27 0.0 3.2 0.00 0.00 0.00 38 1007.4
20260503223808 10 359 3.2 4.8 0.00 0.00 0.00 38 1007.5
20260503223308 10 166 6.4 8.0 0.00 0.00 0.00 35 1007.5
20260503222808 10 70 3.2 3.2 0.00 0.00 0.00 34 1007.4
20260503221848 11 4 3.2 4.8 0.00 0.00 0.00 36 1007.4
20260503221308 11 235 3.2 4.8 0.00 0.00 0.00 34 1007.4
20260503220808 11 99 1.6 3.2 0.00 0.00 0.00 36 1007.5
20260503220308 11 79 1.6 3.2 0.00 0.00 0.00 35 1007.5
20260503215809 11 164 4.8 4.8 0.00 0.00 0.00 34 1007.5
20260503215309 11 179 6.4 9.7 0.00 0.00 0.00 34 1007.5
20260503214809 11 180 6.4 9.7 0.00 0.00 0.00 35 1007.5
20260503214308 11 80 3.2 3.2 0.00 0.00 0.00 36 1007.5
20260503213809 11 89 3.2 4.8 0.00 0.00 0.00 36 1007.5
20260503213308 11 60 1.6 3.2 0.00 0.00 0.00 35 1007.6
20260503212808 11 169 4.8 8.0 0.00 0.00 0.00 35 1007.6
20260503212308 10 295 1.6 4.8 0.00 0.00 0.00 36 1007.6
20260503211808 10 230 1.6 4.8 0.00 0.00 0.00 35 1007.6
20260503211308 10 175 3.2 4.8 0.00 0.00 0.00 36 1007.6
20260503210808 10 201 3.2 3.2 0.00 0.00 0.00 36 1007.7
20260503210308 10 173 1.6 3.2 0.00 0.00 0.00 35 1007.7
20260503205808 10 192 3.2 6.4 0.00 0.00 0.00 36 1007.7
20260503205309 11 232 4.8 9.7 0.00 0.00 0.00 37 1007.8
20260503204809 11 152 3.2 6.4 0.00 0.00 0.00 36 1007.8
20260503204309 11 299 4.8 9.7 0.00 0.00 0.00 36 1007.8
20260503203808 10 173 4.8 8.0 0.00 0.00 0.00 37 1007.9
20260503203308 10 189 6.4 16.1 0.00 0.00 0.00 38 1007.9
20260503202808 10 190 4.8 6.4 0.00 0.00 0.00 37 1007.9
20260503202308 10 159 4.8 6.4 0.00 0.00 0.00 38 1007.9
20260503201808 10 293 6.4 9.7 0.00 0.00 0.00 37 1007.9
20260503201308 10 209 6.4 11.3 0.00 0.00 0.00 40 1008.0
20260503200808 10 211 3.2 6.4 0.00 0.00 0.00 38 1008.1
20260503200310 9 130 1.6 4.8 0.00 0.00 0.00 40 1008.1
20260503195808 9 165 3.2 6.4 0.00 0.00 0.00 40 1008.3
20260503195308 10 284 3.2 6.4 0.00 0.00 0.00 38 1008.3
20260503194808 10 188 3.2 6.4 0.00 0.00 0.00 40 1008.3
20260503194308 9 322 3.2 8.0 0.00 0.00 0.00 38 1008.4
20260503193808 9 209 3.2 11.3 0.00 0.00 0.00 38 1008.5
20260503193308 9 149 3.2 6.4 0.00 0.00 0.00 40 1008.6
20260503192808 9 84 3.2 6.4 0.00 0.00 0.00 40 1008.6
20260503192308 10 180 6.4 9.7 0.00 0.00 0.00 40 1008.5
20260503191811 10 226 6.4 9.7 0.00 0.00 0.00 39 1008.6
20260503191308 10 188 6.4 11.3 0.00 0.00 0.00 37 1008.6
20260503190809 10 154 4.8 6.4 0.00 0.00 0.00 39 1008.8
20260503190308 9 184 8.0 12.9 0.00 0.00 0.00 38 1008.8
20260503185808 9 43 1.6 4.8 0.00 0.00 0.00 41 1008.8
20260503185309 9 228 6.4 12.9 0.00 0.00 0.00 39 1008.9
20260503184808 10 153 4.8 8.0 0.00 0.00 0.00 38 1008.9
20260503184308 9 114 4.8 11.3 0.00 0.00 0.00 40 1008.9
20260503183808 9 137 4.8 6.4 0.00 0.00 0.00 40 1008.9
20260503183308 9 135 0.0 3.2 0.00 0.00 0.00 40 1008.9
20260503182809 9 159 4.8 6.4 0.00 0.00 0.00 39 1009.0
20260503182308 9 187 9.7 19.3 0.00 0.00 0.00 38 1008.9
20260503181808 9 179 3.2 8.0 0.00 0.00 0.00 39 1009.0
20260503181309 9 37 3.2 9.7 0.00 0.00 0.00 39 1009.0
20260503180809 9 68 4.8 8.0 0.00 0.00 0.00 41 1009.1
20260503180308 9 206 4.8 6.4 0.00 0.00 0.00 39 1009.1
20260503175808 9 60 3.2 4.8 0.00 0.00 0.00 40 1009.1
20260503175310 9 64 3.2 6.4 0.00 0.00 0.00 40 1009.1
20260503174809 8 91 3.2 6.4 0.00 0.00 0.00 40 1009.1
20260503174309 8 87 3.2 4.8 0.00 0.00 0.00 41 1009.1
20260503173808 8 166 6.4 8.0 0.00 0.00 0.00 40 1009.0
20260503173308 8 207 4.8 14.5 0.00 0.00 0.00 40 1009.1
20260503172808 8 105 4.8 8.0 0.00 0.00 0.00 40 1009.0
20260503172309 8 97 3.2 6.4 0.00 0.00 0.00 40 1009.0
20260503171808 8 153 4.8 6.4 0.00 0.00 0.00 41 1009.0
20260503171311 8 98 6.4 12.9 0.00 0.00 0.00 40 1009.0
20260503170809 8 123 1.6 3.2 0.00 0.00 0.00 42 1009.1
20260503170308 8 73 3.2 4.8 0.00 0.00 0.00 42 1009.1
20260503150808 8 173 4.8 9.7 0.00 0.00 0.00 47 1009.3
20260503150308 8 40 6.4 9.7 0.00 0.00 0.00 48 1009.3
20260503140308 8 103 3.2 4.8 0.00 0.00 0.00 53 1009.6